[[{"header":{"parameterUnit":"m.s-1","parameterCategory":1,"la1":30.2991,"la2":30.254,"lo1":-89.0895,"lo2":-89.0444,"dy":0.0017,"dx":0.0017,"nx":28,"ny":28,"refTime":"2024-09-03T21:00:00:Z","depth":0,"parameterNumber":2,"parameterNumberName":"U-component_of_WINDS"},"data":[0,0,0,0,0,0,0,0,0,0,0,0,0,0,0,0,0,0,0,0,0,0,0,0,0,0,0,0,0,0,0,0,0,0,0,0,0,0,0,0,0,0,0,0,0,0,0,0,0,0,0,0,0,0,0,0,0,0,-3.2895,-3.2895,0,-3.2884,-3.2884,-3.2883,-3.2824,-3.2823,-3.2821,-3.282,-3.2809,-3.281,-3.2811,0,0,0,0,0,0,0,0,0,0,0,0,0,-3.2866,-3.2867,-3.2895,-3.2895,-3.2895,-3.2884,-3.2884,-3.2883,-3.2824,-3.2823,-3.2821,-3.2819,-3.2809,-3.281,-3.2811,0,0,0,0,0,0,0,0,0,0,0,0,0,-3.2869,-3.2867,-3.2895,-3.2864,-3.2861,-3.2884,-3.2884,-3.2883,-3.2825,-3.2823,-3.282,-3.2818,-3.2808,-3.281,-3.2811,-3.2863,0,0,-3.2816,-3.2817,0,0,0,0,0,0,0,0,-3.2869,-3.287,-3.2869,-3.2866,-3.2863,-3.2853,-3.2869,-3.2877,-3.2825,-3.2839,-3.282,-3.2817,-3.2825,-3.2825,-3.2828,-3.2863,-3.2862,-3.2816,-3.2817,-3.2818,-3.2818,0,0,0,0,0,0,0,-3.2869,-3.2871,-3.289,-3.2869,-3.2865,-3.2851,-3.2849,-3.287,-3.2844,-3.2837,-3.2833,-3.2832,-3.2823,-3.2827,-3.2827,-3.2862,-3.2816,-3.2817,-3.2818,-3.2819,-3.294,-3.2943,0,0,0,0,0,0,-3.2873,-3.2871,-3.2891,-3.289,-3.2861,-3.2853,-3.2851,-3.2858,-3.2844,-3.2839,-3.2834,-3.283,-3.2825,-3.2826,-3.2827,-3.2888,-3.2818,-3.2819,-3.282,-3.2938,-3.2941,-3.2943,0,0,0,0,0,0,-3.2873,-3.2875,-3.2891,-3.2879,-3.288,-3.2856,-3.2865,-3.2859,-3.2862,-3.2841,-3.2836,-3.2842,-3.2823,-3.2825,-3.2855,-3.2886,-3.282,-3.2821,-3.2935,-3.2939,-3.2942,-3.3009,0,0,0,0,0,0,-3.2872,-3.2876,-3.2895,-3.288,-3.2881,-3.292,-3.2867,-3.2861,-3.2865,-3.2859,-3.2848,-3.2844,-3.2822,-3.2853,-3.2856,-3.2887,-3.2823,-3.2932,-3.2937,-3.2941,-3.3004,-3.3015,-3.3024,0,0,0,0,0,-3.2871,-3.2914,-3.2896,-3.2899,-3.2905,-3.2921,-3.2922,-3.2896,-3.2868,-3.2887,-3.2874,-3.2844,-3.2882,-3.2857,-3.286,-3.2892,-3.293,-3.2936,-3.2941,-3.3,-3.3013,-3.3023,0,0,0,0,0,0,-3.2933,-3.2912,-3.2891,-3.2931,-3.2928,-3.2911,-3.2935,-3.291,-3.2916,-3.291,-3.2877,-3.2875,-3.2911,-3.2904,-3.2876,-3.2942,-3.2901,-3.2907,-3.2945,-3.2957,-3.2967,-3.2968,-3.2824,0,0,0,0,0,-3.2951,-3.2967,-3.2947,-3.2984,-3.2983,-3.296,-3.2966,-3.2946,-3.2942,-3.2941,-3.293,-3.2928,-3.2939,-3.2948,-3.2957,-3.3003,-3.3,-3.3026,-3.3036,-3.3044,-3.305,-3.3075,-3.3087,-3.296,-3.296,-3.296,0,0,-3.2989,-3.2979,-3.2991,-3.2996,-3.2992,-3.3009,-3.2959,-3.2979,-3.2992,-3.2944,-3.2973,-3.2964,-3.296,-3.2999,-3.3015,-3.2994,-3.3084,-3.3051,-3.3057,-3.3059,-3.3082,-3.3094,-3.3104,-3.2964,-3.2963,-3.2963,0,0,-3.3067,-3.306,-3.3091,-3.3088,-3.3082,-3.3066,-3.3074,-3.3061,-3.3054,-3.3081,-3.3047,-3.3061,-3.3081,-3.308,-3.3082,-3.316,-3.3133,-3.3164,-3.3215,-3.324,-3.325,-3.3259,-3.3288,-3.3298,-3.317,-3.317,-3.317,0,-3.3115,-3.3139,-3.311,-3.3132,-3.3136,-3.3094,-3.3125,-3.3123,-3.3121,-3.3125,-3.3101,-3.3127,-3.3121,-3.3159,-3.3178,-3.3181,-3.3189,-3.3166,-3.3251,-3.3259,-3.3267,-3.3294,-3.3305,-3.3174,-3.3174,-3.3173,-3.3173,0,-3.3198,-3.3216,-3.3241,-3.324,-3.3247,-3.3273,-3.3249,-3.3259,-3.3239,-3.3225,-3.3255,-3.3246,-3.3254,-3.3261,-3.3241,-3.3297,-3.3284,-3.3256,-3.3215,-3.3283,-3.3309,-3.3319,-3.318,-3.3178,-3.3177,-3.3176,0,0,-3.3315,-3.3298,-3.3308,-3.3308,-3.3299,-3.3312,-3.3337,-3.3345,-3.3354,-3.3354,-3.3375,-3.3394,-3.3368,-3.337,-3.335,-3.3372,-3.3436,-3.3341,-3.334,-3.336,-3.3498,-3.352,-3.3533,-3.3418,-3.342,-3.3421,-3.3499,0,-3.339,-3.3432,-3.3407,-3.3453,-3.3469,-3.343,-3.3452,-3.3449,-3.3438,-3.345,-3.3437,-3.3451,-3.3416,-3.3417,-3.3437,-3.3424,-3.3464,-3.3418,-3.3438,-3.3439,-3.3441,-3.3546,-3.3569,-3.3643,-3.3509,-3.351,-3.3511,0,-3.3484,-3.3489,-3.3536,-3.3525,-3.3531,-3.3552,-3.3557,-3.3569,-3.3565,-3.3555,-3.3559,-3.3533,-3.3558,-3.3516,-3.355,-3.352,-3.3526,-3.3522,-3.3524,-3.3525,-3.348,-3.3551,-3.3666,-3.3677,-3.3526,-3.3525,-3.3524,0,-3.3566,-3.3584,-3.3615,-3.3616,-3.3603,-3.3619,-3.3614,-3.3609,-3.3615,-3.362,-3.3624,-3.3631,-3.3635,-3.3642,-3.362,-3.3591,-3.3657,-3.3613,-3.365,-3.3651,-3.3667,-3.3666,-3.3785,-3.3669,-3.3669,-3.3669,-3.3669,0,-3.3653,-3.3684,-3.3652,-3.3671,-3.3705,-3.3676,-3.3711,-3.3702,-3.3697,-3.3715,-3.3681,-3.3698,-3.3667,-3.3681,-3.3663,-3.3695,-3.3697,-3.369,-3.3685,-3.3694,-3.3695,-3.3698,-3.3693,-3.3672,-3.3671,-3.3671,-3.367,0,-3.3751,-3.373,-3.3762,-3.3747,-3.3745,-3.3771,-3.3759,-3.3776,-3.3762,-3.3785,-3.3788,-3.3767,-3.3782,-3.376,-3.3773,-3.3761,-3.3805,-3.3791,-3.3806,-3.3803,-3.3841,-3.3838,-3.3967,-3.3983,-3.3857,-3.3858,-3.3859,0,-3.3808,-3.3831,-3.382,-3.3829,-3.3827,-3.3842,-3.3849,-3.3821,-3.3829,-3.3828,-3.3846,-3.3858,-3.3866,-3.3892,-3.3878,-3.3888,-3.3875,-3.392,-3.3876,-3.3885,-3.3877,-3.3877,-3.3879,-3.3929,-3.393,-3.3932,-3.3932,0,-3.3914,-3.3902,-3.3913,-3.3921,-3.3929,-3.3934,-3.3936,-3.3945,-3.3916,-3.3928,-3.3943,-3.3949,-3.3962,-3.3975,-3.3981,-3.3977,-3.3951,-3.3946,-3.3955,-3.3965,-3.3973,-3.397,-3.3831,-3.3943,-3.3942,-3.3942,-3.3941,-3.3941,-3.3993,-3.4013,-3.4008,-3.4021,-3.402,-3.4023,-3.4039,-3.4028,-3.404,-3.4048,-3.4031,-3.4051,-3.4047,-3.4053,-3.4052,-3.4067,-3.4047,-3.4061,-3.4064,-3.4068,-3.4075,-3.397,-3.4068,-3.4067,-3.4067,-3.4067,-3.4066,0,-3.4098,-3.4093,-3.4106,-3.411,-3.4121,-3.4094,-3.4095,-3.4106,-3.4124,-3.4123,-3.4132,-3.415,-3.4162,-3.4149,-3.4159,-3.4174,-3.4163,-3.4178,-3.4177,-3.4177,-3.4091,-3.4082,-3.4187,-3.4187,-3.4187,-3.4187,-3.4187,-3.4187,-3.4154,-3.4185,-3.4174,-3.4204,-3.4199,-3.4218,-3.4221,-3.4224,-3.4223,-3.4245,-3.4255,-3.4246,-3.4241,-3.425,-3.4261,-3.4257,-3.4263,-3.4283,-3.4275,-3.4195,-3.4183,-3.4171,-3.4163,-3.4284,-3.4284,-3.4359,-3.436,-3.4361]},{"header":{"parameterUnit":"m.s-1","parameterCategory":1,"la1":30.2991,"la2":30.254,"lo1":-89.0895,"lo2":-89.0444,"dy":0.0017,"dx":0.0017,"nx":28,"ny":28,"refTime":"2024-09-03T21:00:00:Z","depth":0,"parameterNumber":3,"parameterNumberName":"V-component_of_WINDS"},"data":[0,0,0,0,0,0,0,0,0,0,0,0,0,0,0,0,0,0,0,0,0,0,0,0,0,0,0,0,0,0,0,0,0,0,0,0,0,0,0,0,0,0,0,0,0,0,0,0,0,0,0,0,0,0,0,0,0,0,-1.3633,-1.3633,0,-1.3604,-1.3604,-1.3603,-1.3557,-1.3556,-1.3555,-1.3555,-1.3525,-1.3525,-1.3525,0,0,0,0,0,0,0,0,0,0,0,0,0,-1.3648,-1.3648,-1.3633,-1.3633,-1.3633,-1.3604,-1.3604,-1.3603,-1.3557,-1.3556,-1.3555,-1.3554,-1.3525,-1.3525,-1.3525,0,0,0,0,0,0,0,0,0,0,0,0,0,-1.3633,-1.3648,-1.3633,-1.3606,-1.3603,-1.3604,-1.3604,-1.3603,-1.3557,-1.3556,-1.3555,-1.3554,-1.3525,-1.3525,-1.3525,-1.355,0,0,-1.3525,-1.3525,0,0,0,0,0,0,0,0,-1.3634,-1.3632,-1.3611,-1.3608,-1.3605,-1.3583,-1.3598,-1.3585,-1.3558,-1.3575,-1.3555,-1.3553,-1.3545,-1.3544,-1.3541,-1.3549,-1.3547,-1.3525,-1.3525,-1.3525,-1.3525,0,0,0,0,0,0,0,-1.3635,-1.3633,-1.3622,-1.361,-1.3607,-1.3595,-1.3591,-1.3596,-1.3568,-1.3573,-1.357,-1.3567,-1.3543,-1.3541,-1.354,-1.3547,-1.3525,-1.3525,-1.3525,-1.3525,-1.3573,-1.3574,0,0,0,0,0,0,-1.364,-1.3635,-1.3623,-1.3621,-1.3617,-1.3596,-1.3592,-1.3591,-1.3567,-1.3562,-1.3568,-1.3565,-1.3542,-1.354,-1.3539,-1.3566,-1.3525,-1.3525,-1.3525,-1.3571,-1.3573,-1.3574,0,0,0,0,0,0,-1.3641,-1.364,-1.3624,-1.3627,-1.3624,-1.3597,-1.3597,-1.3591,-1.3589,-1.3563,-1.3558,-1.3571,-1.354,-1.3539,-1.3547,-1.3564,-1.3525,-1.3525,-1.357,-1.3572,-1.3573,-1.3621,0,0,0,0,0,0,-1.3641,-1.364,-1.365,-1.3627,-1.3624,-1.3634,-1.3598,-1.3592,-1.3589,-1.3584,-1.3564,-1.356,-1.3539,-1.3547,-1.3547,-1.3563,-1.3525,-1.3568,-1.3571,-1.3573,-1.3617,-1.3624,-1.3629,0,0,0,0,0,-1.3642,-1.3664,-1.365,-1.3649,-1.3635,-1.3635,-1.3633,-1.3608,-1.359,-1.36,-1.3583,-1.3561,-1.3562,-1.3549,-1.3548,-1.3564,-1.3567,-1.357,-1.3573,-1.3615,-1.3623,-1.3629,0,0,0,0,0,0,-1.369,-1.3661,-1.3645,-1.3661,-1.3651,-1.3627,-1.3638,-1.3618,-1.3612,-1.3608,-1.3578,-1.3574,-1.3587,-1.3576,-1.3562,-1.3587,-1.3561,-1.3564,-1.3593,-1.36,-1.3606,-1.3609,-1.3525,0,0,0,0,0,-1.3702,-1.3704,-1.3679,-1.3695,-1.3691,-1.3665,-1.3664,-1.3646,-1.3634,-1.3629,-1.3614,-1.3603,-1.36,-1.36,-1.3597,-1.3615,-1.361,-1.3626,-1.3632,-1.3637,-1.364,-1.3648,-1.3655,-1.3584,-1.3584,-1.3583,0,0,-1.3728,-1.3712,-1.3716,-1.3704,-1.3694,-1.3696,-1.3662,-1.3666,-1.3667,-1.363,-1.3637,-1.3625,-1.3611,-1.3624,-1.363,-1.3616,-1.3658,-1.3641,-1.3645,-1.3645,-1.3652,-1.3658,-1.3664,-1.3585,-1.3585,-1.3585,0,0,-1.3776,-1.3765,-1.3777,-1.3767,-1.3751,-1.3734,-1.3737,-1.3716,-1.3706,-1.3712,-1.3684,-1.3685,-1.3682,-1.3673,-1.3668,-1.371,-1.3689,-1.371,-1.3742,-1.375,-1.3755,-1.376,-1.3775,-1.378,-1.3713,-1.3713,-1.3713,0,-1.381,-1.3812,-1.3785,-1.3791,-1.3786,-1.3752,-1.3764,-1.3755,-1.374,-1.3738,-1.3722,-1.3717,-1.3705,-1.3716,-1.3726,-1.3723,-1.3725,-1.3713,-1.3757,-1.3761,-1.3765,-1.3779,-1.3785,-1.3716,-1.3716,-1.3715,-1.3715,0,-1.3855,-1.3857,-1.3868,-1.3853,-1.385,-1.3859,-1.3832,-1.3832,-1.3814,-1.3798,-1.3805,-1.3789,-1.3781,-1.3782,-1.3765,-1.379,-1.3782,-1.3762,-1.3736,-1.3775,-1.3787,-1.3792,-1.372,-1.3719,-1.3718,-1.3717,0,0,-1.3933,-1.3902,-1.3907,-1.3899,-1.3879,-1.388,-1.3886,-1.3878,-1.3878,-1.3869,-1.3873,-1.387,-1.3852,-1.3846,-1.3827,-1.3834,-1.3868,-1.3813,-1.3813,-1.3824,-1.3893,-1.3908,-1.3915,-1.3854,-1.3854,-1.3855,-1.3894,0,-1.3977,-1.3986,-1.3962,-1.3977,-1.3978,-1.3945,-1.395,-1.3938,-1.3923,-1.3921,-1.3904,-1.3903,-1.3879,-1.3875,-1.388,-1.3863,-1.3881,-1.386,-1.3857,-1.3857,-1.3861,-1.3921,-1.3937,-1.3975,-1.3899,-1.39,-1.39,0,-1.4029,-1.4021,-1.4037,-1.4015,-1.4014,-1.402,-1.4009,-1.4008,-1.3993,-1.3982,-1.3975,-1.3952,-1.3956,-1.3931,-1.3935,-1.3921,-1.3918,-1.3909,-1.391,-1.3909,-1.3881,-1.3921,-1.3986,-1.3992,-1.3908,-1.3907,-1.3906,0,-1.4085,-1.4078,-1.4086,-1.408,-1.4055,-1.4059,-1.4048,-1.4032,-1.4029,-1.402,-1.4017,-1.4009,-1.4004,-1.3998,-1.3974,-1.3958,-1.3981,-1.3954,-1.3971,-1.3972,-1.3978,-1.3978,-1.4043,-1.3977,-1.3977,-1.3976,-1.3976,0,-1.4136,-1.4147,-1.411,-1.4115,-1.4126,-1.4096,-1.4108,-1.4094,-1.4079,-1.408,-1.4051,-1.4053,-1.4021,-1.4019,-1.4,-1.4006,-1.4004,-1.3994,-1.3989,-1.3997,-1.3998,-1.3995,-1.3992,-1.3978,-1.3978,-1.3977,-1.3977,0,-1.42,-1.4176,-1.4182,-1.4157,-1.415,-1.4159,-1.4137,-1.414,-1.4123,-1.4125,-1.4123,-1.4096,-1.4092,-1.4067,-1.4057,-1.4044,-1.4057,-1.4047,-1.4062,-1.4059,-1.4077,-1.4076,-1.4143,-1.4149,-1.4079,-1.408,-1.408,0,-1.4234,-1.4241,-1.4216,-1.4215,-1.4206,-1.4204,-1.42,-1.4171,-1.4168,-1.415,-1.4155,-1.4149,-1.4142,-1.4137,-1.4116,-1.4108,-1.4097,-1.4121,-1.4096,-1.4103,-1.4096,-1.4096,-1.4096,-1.4126,-1.4127,-1.4128,-1.4129,0,-1.4298,-1.4285,-1.428,-1.4271,-1.4266,-1.4258,-1.4247,-1.4248,-1.4216,-1.4213,-1.4208,-1.4203,-1.4193,-1.4186,-1.4174,-1.4163,-1.414,-1.4137,-1.414,-1.4148,-1.4156,-1.4151,-1.4077,-1.4135,-1.4135,-1.4134,-1.4134,-1.4133,-1.4347,-1.4352,-1.4334,-1.4329,-1.4318,-1.4309,-1.431,-1.4292,-1.4288,-1.4277,-1.426,-1.4257,-1.4241,-1.4222,-1.4213,-1.421,-1.4197,-1.4202,-1.4203,-1.4205,-1.4209,-1.4157,-1.4207,-1.4207,-1.4207,-1.4207,-1.4207,0,-1.4408,-1.4395,-1.4391,-1.4377,-1.4373,-1.4352,-1.4338,-1.4336,-1.4334,-1.4321,-1.4314,-1.4308,-1.4301,-1.4279,-1.427,-1.4272,-1.4261,-1.427,-1.427,-1.4267,-1.4221,-1.4219,-1.4279,-1.4279,-1.4279,-1.4279,-1.4279,-1.4279,-1.444,-1.4446,-1.4431,-1.4431,-1.4417,-1.4415,-1.4409,-1.4399,-1.4388,-1.4383,-1.4377,-1.4362,-1.4345,-1.4333,-1.4326,-1.4319,-1.4317,-1.433,-1.432,-1.4277,-1.427,-1.4264,-1.4261,-1.433,-1.433,-1.4366,-1.4366,-1.4367]}]]